Time,TemperatureF,DewpointF,PressureIn,WindDirection,WindDirectionDegrees,WindSpeedMPH,WindSpeedGustMPH,Humidity,HourlyPrecipIn,Conditions,Clouds,dailyrainin,SoftwareType,DateUTC
2013-05-09 00:05:00,59.4,55.8,29.92,WSW,242,0.0,0.0,88,0.00,,,0.00,Wunderground v.1.15,2013-05-09 05:05:00,
2013-05-09 00:10:00,59.3,55.7,29.92,WSW,242,0.0,0.0,88,0.00,,,0.00,Wunderground v.1.15,2013-05-09 05:10:00,
2013-05-09 00:16:00,59.2,56.0,29.92,WSW,242,0.0,2.0,89,0.00,,,0.00,Wunderground v.1.15,2013-05-09 05:16:00,
2013-05-09 00:32:00,59.3,56.1,29.91,WSW,242,0.0,1.0,89,0.00,,,0.00,Wunderground v.1.15,2013-05-09 05:32:00,
2013-05-09 00:39:00,59.4,56.2,29.91,WSW,242,0.0,1.0,89,0.00,,,0.00,Wunderground v.1.15,2013-05-09 05:39:00,
2013-05-09 00:54:00,59.5,56.3,29.90,WSW,242,0.0,1.0,89,0.00,,,0.00,Wunderground v.1.15,2013-05-09 05:54:00,
2013-05-09 00:59:00,59.5,56.3,29.90,WSW,242,0.0,1.0,89,0.00,,,0.00,Wunderground v.1.15,2013-05-09 05:59:00,
2013-05-09 01:05:00,59.4,56.2,29.90,WSW,242,0.0,1.0,89,0.00,,,0.00,Wunderground v.1.15,2013-05-09 06:05:00,
2013-05-09 01:10:00,59.4,56.2,29.90,WSW,242,0.0,1.0,89,0.00,,,0.00,Wunderground v.1.15,2013-05-09 06:10:00,
2013-05-09 01:20:00,59.5,56.6,29.89,WSW,242,0.0,1.0,90,0.00,,,0.00,Wunderground v.1.15,2013-05-09 06:20:00,
2013-05-09 01:30:00,59.7,56.8,29.89,WSW,242,0.0,1.0,90,0.00,,,0.00,Wunderground v.1.15,2013-05-09 06:30:00,
2013-05-09 01:35:00,59.8,56.9,29.89,WSW,242,0.0,1.0,90,0.00,,,0.00,Wunderground v.1.15,2013-05-09 06:35:00,
2013-05-09 01:45:00,60.2,56.9,29.89,WSW,242,0.0,1.0,89,0.00,,,0.00,Wunderground v.1.15,2013-05-09 06:45:00,
2013-05-09 01:50:00,60.3,57.0,29.89,WSW,242,1.0,1.0,89,0.00,,,0.00,Wunderground v.1.15,2013-05-09 06:50:00,
2013-05-09 01:56:00,60.4,56.8,29.89,WSW,242,0.0,1.0,88,0.00,,,0.00,Wunderground v.1.15,2013-05-09 06:56:00,
2013-05-09 02:01:00,60.5,56.9,29.89,WSW,242,0.0,1.0,88,0.00,,,0.00,Wunderground v.1.15,2013-05-09 07:01:00,
2013-05-09 02:07:00,60.6,56.7,29.89,WSW,242,0.0,1.0,87,0.00,,,0.00,Wunderground v.1.15,2013-05-09 07:07:00,
2013-05-09 02:12:00,60.9,56.7,29.89,WSW,242,1.0,4.0,86,0.00,,,0.00,Wunderground v.1.15,2013-05-09 07:12:00,
2013-05-09 02:18:00,61.2,57.0,29.88,WSW,242,2.0,4.0,86,0.00,,,0.00,Wunderground v.1.15,2013-05-09 07:18:00,
2013-05-09 02:23:00,61.4,56.8,29.88,WSW,242,2.0,2.0,85,0.00,,,0.00,Wunderground v.1.15,2013-05-09 07:23:00,
2013-05-09 02:29:00,61.7,56.8,29.89,WSW,242,1.0,3.0,84,0.00,,,0.00,Wunderground v.1.15,2013-05-09 07:29:00,
2013-05-09 02:35:00,61.8,56.9,29.89,WSW,242,2.0,3.0,84,0.00,,,0.00,Wunderground v.1.15,2013-05-09 07:35:00,
2013-05-09 02:40:00,62.0,57.1,29.89,WSW,242,2.0,4.0,84,0.00,,,0.00,Wunderground v.1.15,2013-05-09 07:40:00,
2013-05-09 02:46:00,62.3,56.7,29.91,NW,317,5.0,9.0,82,0.00,,,0.00,Wunderground v.1.15,2013-05-09 07:46:00,
2013-05-09 02:51:00,62.4,56.8,29.91,NW,317,7.0,7.0,82,0.00,,,0.00,Wunderground v.1.15,2013-05-09 07:51:00,
2013-05-09 02:57:00,62.3,57.1,29.91,WNW,302,6.0,8.0,83,0.00,,,0.00,Wunderground v.1.15,2013-05-09 07:57:00,
2013-05-09 03:02:00,62.1,56.9,29.91,WNW,295,6.0,9.0,83,0.00,,,0.00,Wunderground v.1.15,2013-05-09 08:02:00,
2013-05-09 03:08:00,61.9,57.0,29.90,WNW,288,7.0,9.0,84,0.00,,,0.00,Wunderground v.1.15,2013-05-09 08:08:00,
2013-05-09 03:13:00,61.7,57.5,29.90,WNW,294,7.0,8.0,86,0.00,,,0.01,Wunderground v.1.15,2013-05-09 08:13:00,
2013-05-09 03:19:00,61.2,57.6,29.91,WNW,302,6.0,8.0,88,0.00,,,0.01,Wunderground v.1.15,2013-05-09 08:19:00,
2013-05-09 03:24:00,61.0,57.7,29.91,WNW,295,7.0,12.0,89,0.07,,,0.02,Wunderground v.1.15,2013-05-09 08:24:00,
2013-05-09 03:30:00,60.7,58.1,29.92,WNW,284,9.0,9.0,91,0.24,,,0.05,Wunderground v.1.15,2013-05-09 08:30:00,
2013-05-09 03:35:00,60.0,57.4,29.92,WNW,297,10.0,14.0,91,2.36,,,0.18,Wunderground v.1.15,2013-05-09 08:35:00,
2013-05-09 03:41:00,59.2,56.9,29.92,West,267,12.0,13.0,92,6.06,,,0.36,Wunderground v.1.15,2013-05-09 08:41:00,
2013-05-09 03:46:00,58.9,56.6,29.90,WNW,300,10.0,13.0,92,1.97,,,0.62,Wunderground v.1.15,2013-05-09 08:46:00,
2013-05-09 03:52:00,58.6,56.6,29.90,WNW,298,7.0,8.0,93,0.46,,,0.72,Wunderground v.1.15,2013-05-09 08:52:00,
2013-05-09 03:57:00,58.4,56.4,29.91,NW,307,6.0,8.0,93,0.67,,,0.76,Wunderground v.1.15,2013-05-09 08:57:00,
2013-05-09 04:03:00,58.4,56.4,29.89,NW,307,3.0,6.0,93,0.38,,,0.80,Wunderground v.1.15,2013-05-09 09:03:00,
2013-05-09 04:08:00,58.4,56.7,29.91,WNW,286,4.0,10.0,94,0.09,,,0.80,Wunderground v.1.15,2013-05-09 09:08:00,
2013-05-09 04:14:00,58.5,56.8,29.91,NW,311,7.0,7.0,94,0.67,,,0.93,Wunderground v.1.15,2013-05-09 09:14:00,
2013-05-09 04:19:00,58.5,56.8,29.90,NW,312,5.0,7.0,94,0.59,,,0.98,Wunderground v.1.15,2013-05-09 09:19:00,
2013-05-09 04:25:00,58.6,56.9,29.90,NW,312,3.0,5.0,94,0.14,,,1.00,Wunderground v.1.15,2013-05-09 09:25:00,
2013-05-09 04:30:00,58.7,57.0,29.91,WNW,302,2.0,5.0,94,0.11,,,1.00,Wunderground v.1.15,2013-05-09 09:30:00,
2013-05-09 04:36:00,58.8,57.1,29.90,WNW,298,3.0,5.0,94,0.36,,,1.02,Wunderground v.1.15,2013-05-09 09:36:00,
2013-05-09 04:41:00,58.9,57.2,29.90,WNW,298,2.0,4.0,94,0.15,,,1.04,Wunderground v.1.15,2013-05-09 09:41:00,
2013-05-09 04:47:00,58.9,57.2,29.91,West,281,4.0,6.0,94,0.23,,,1.06,Wunderground v.1.15,2013-05-09 09:47:00,
2013-05-09 04:56:00,59.0,57.6,29.88,West,281,2.0,4.0,95,0.35,,,1.08,Wunderground v.1.15,2013-05-09 09:56:00,
2013-05-09 05:02:00,59.0,57.6,29.88,West,281,1.0,1.0,95,0.08,,,1.08,Wunderground v.1.15,2013-05-09 10:02:00,
2013-05-09 05:08:00,58.9,57.5,29.88,West,281,0.0,2.0,95,0.05,,,1.08,Wunderground v.1.15,2013-05-09 10:08:00,
2013-05-09 05:13:00,58.9,57.5,29.87,West,281,0.0,1.0,95,0.00,,,1.08,Wunderground v.1.15,2013-05-09 10:13:00,
2013-05-09 05:19:00,58.7,57.0,29.88,West,281,0.0,1.0,94,0.00,,,1.08,Wunderground v.1.15,2013-05-09 10:19:00,
2013-05-09 05:24:00,58.6,57.2,29.88,West,281,0.0,1.0,95,0.00,,,1.08,Wunderground v.1.15,2013-05-09 10:24:00,
2013-05-09 05:30:00,58.5,57.1,29.87,West,281,0.0,1.0,95,0.00,,,1.08,Wunderground v.1.15,2013-05-09 10:30:00,
2013-05-09 05:35:00,58.4,57.0,29.87,West,281,0.0,3.0,95,0.00,,,1.08,Wunderground v.1.15,2013-05-09 10:35:00,
2013-05-09 05:41:00,58.4,57.0,29.87,West,281,1.0,1.0,95,0.00,,,1.08,Wunderground v.1.15,2013-05-09 10:41:00,
2013-05-09 05:46:00,58.4,57.0,29.87,West,281,0.0,1.0,95,0.00,,,1.08,Wunderground v.1.15,2013-05-09 10:46:00,
2013-05-09 05:52:00,58.3,56.9,29.87,West,281,0.0,1.0,95,0.00,,,1.08,Wunderground v.1.15,2013-05-09 10:52:00,
2013-05-09 05:57:00,58.3,56.9,29.87,West,281,0.0,1.0,95,0.00,,,1.08,Wunderground v.1.15,2013-05-09 10:57:00,
2013-05-09 06:03:00,58.3,56.9,29.87,West,281,1.0,1.0,95,0.00,,,1.08,Wunderground v.1.15,2013-05-09 11:03:00,
2013-05-09 06:08:00,58.3,56.9,29.87,West,281,0.0,1.0,95,0.00,,,1.08,Wunderground v.1.15,2013-05-09 11:08:00,
2013-05-09 06:14:00,58.2,56.8,29.87,West,281,0.0,1.0,95,0.00,,,1.08,Wunderground v.1.15,2013-05-09 11:14:00,
2013-05-09 06:19:00,58.2,57.1,29.87,West,281,0.0,1.0,96,0.00,,,1.08,Wunderground v.1.15,2013-05-09 11:19:00,
2013-05-09 06:25:00,58.2,57.1,29.86,West,281,0.0,1.0,96,0.00,,,1.08,Wunderground v.1.15,2013-05-09 11:25:00,
2013-05-09 06:31:00,58.3,57.2,29.86,West,281,0.0,1.0,96,0.00,,,1.08,Wunderground v.1.15,2013-05-09 11:31:00,
2013-05-09 06:37:00,58.4,57.3,29.86,West,281,0.0,1.0,96,0.00,,,1.08,Wunderground v.1.15,2013-05-09 11:37:00,
2013-05-09 06:43:00,58.4,57.3,29.86,West,281,0.0,1.0,96,0.00,,,1.08,Wunderground v.1.15,2013-05-09 11:43:00,
2013-05-09 06:48:00,58.4,57.3,29.86,West,281,0.0,1.0,96,0.00,,,1.08,Wunderground v.1.15,2013-05-09 11:48:00,
2013-05-09 06:54:00,58.4,57.3,29.86,West,281,0.0,2.0,96,0.00,,,1.08,Wunderground v.1.15,2013-05-09 11:54:00,
2013-05-09 06:59:00,58.5,57.4,29.86,SSE,154,2.0,7.0,96,0.00,,,1.09,Wunderground v.1.15,2013-05-09 11:59:00,
2013-05-09 07:05:00,58.6,57.5,29.86,SSE,147,3.0,6.0,96,0.00,,,1.09,Wunderground v.1.15,2013-05-09 12:05:00,
2013-05-09 07:10:00,58.6,57.5,29.85,SE,146,3.0,6.0,96,0.00,,,1.09,Wunderground v.1.15,2013-05-09 12:10:00,
2013-05-09 07:16:00,58.7,57.6,29.85,SSE,152,3.0,8.0,96,0.00,,,1.09,Wunderground v.1.15,2013-05-09 12:16:00,
2013-05-09 07:21:00,58.7,57.6,29.86,SSE,148,4.0,5.0,96,0.00,,,1.09,Wunderground v.1.15,2013-05-09 12:21:00,
2013-05-09 07:27:00,59.1,58.0,29.86,SSE,153,4.0,5.0,96,0.00,,,1.09,Wunderground v.1.15,2013-05-09 12:27:00,
2013-05-09 07:32:00,59.5,58.4,29.86,SE,142,2.0,3.0,96,0.00,,,1.09,Wunderground v.1.15,2013-05-09 12:32:00,
2013-05-09 07:38:00,59.9,58.8,29.86,SSE,152,3.0,5.0,96,0.00,,,1.09,Wunderground v.1.15,2013-05-09 12:38:00,
2013-05-09 07:43:00,60.2,59.1,29.86,SE,144,3.0,5.0,96,0.00,,,1.09,Wunderground v.1.15,2013-05-09 12:43:00,
2013-05-09 08:04:00,61.1,60.0,29.85,SE,146,4.0,6.0,96,0.00,,,1.09,Wunderground v.1.15,2013-05-09 13:04:00,
2013-05-09 08:14:00,61.7,60.5,29.86,SE,142,4.0,4.0,96,0.00,,,1.09,Wunderground v.1.15,2013-05-09 13:14:00,
2013-05-09 08:28:00,62.1,60.9,29.86,SE,142,1.0,1.0,96,0.00,,,1.09,Wunderground v.1.15,2013-05-09 13:28:00,
2013-05-09 08:33:00,62.1,60.7,29.86,SE,142,1.0,5.0,95,0.00,,,1.09,Wunderground v.1.15,2013-05-09 13:33:00,
2013-05-09 08:45:00,62.3,60.8,29.86,SE,142,2.0,2.0,95,0.00,,,1.09,Wunderground v.1.15,2013-05-09 13:45:00,
2013-05-09 08:50:00,62.3,60.8,29.86,SE,138,2.0,6.0,95,0.00,,,1.09,Wunderground v.1.15,2013-05-09 13:50:00,
2013-05-09 08:56:00,62.5,61.0,29.85,SSE,165,3.0,6.0,95,0.00,,,1.09,Wunderground v.1.15,2013-05-09 13:56:00,
2013-05-09 09:02:00,62.6,60.8,29.86,SSE,159,3.0,5.0,94,0.00,,,1.09,Wunderground v.1.15,2013-05-09 14:02:00,
2013-05-09 09:07:00,62.9,61.4,29.86,South,173,2.0,5.0,95,0.00,,,1.09,Wunderground v.1.15,2013-05-09 14:07:00,
2013-05-09 09:12:00,63.0,61.2,29.85,SE,142,2.0,5.0,94,0.00,,,1.09,Wunderground v.1.15,2013-05-09 14:12:00,
2013-05-09 09:18:00,63.2,61.4,29.85,SSE,153,2.0,5.0,94,0.00,,,1.09,Wunderground v.1.15,2013-05-09 14:18:00,
2013-05-09 09:24:00,63.2,61.4,29.86,SW,219,1.0,2.0,94,0.00,,,1.09,Wunderground v.1.15,2013-05-09 14:24:00,
2013-05-09 09:29:00,63.2,61.4,29.86,SW,229,1.0,6.0,94,0.00,,,1.09,Wunderground v.1.15,2013-05-09 14:29:00,
2013-05-09 09:35:00,63.2,61.1,29.86,SW,230,1.0,5.0,93,0.00,,,1.09,Wunderground v.1.15,2013-05-09 14:35:00,
2013-05-09 09:40:00,63.0,60.9,29.86,SW,215,2.0,2.0,93,0.00,,,1.09,Wunderground v.1.15,2013-05-09 14:40:00,
2013-05-09 09:46:00,63.1,61.0,29.86,SW,222,2.0,3.0,93,0.00,,,1.09,Wunderground v.1.15,2013-05-09 14:46:00,
2013-05-09 09:51:00,63.2,61.1,29.86,SW,223,2.0,4.0,93,0.00,,,1.09,Wunderground v.1.15,2013-05-09 14:51:00,
2013-05-09 09:57:00,63.3,61.5,29.85,SW,223,1.0,4.0,94,0.00,,,1.09,Wunderground v.1.15,2013-05-09 14:57:00,
2013-05-09 10:02:00,63.5,61.7,29.85,SW,223,0.0,1.0,94,0.00,,,1.09,Wunderground v.1.15,2013-05-09 15:02:00,
2013-05-09 10:08:00,63.5,61.7,29.85,SW,223,0.0,1.0,94,0.00,,,1.09,Wunderground v.1.15,2013-05-09 15:08:00,
2013-05-09 10:25:00,63.2,61.4,29.85,SW,221,4.0,4.0,94,0.00,,,1.09,Wunderground v.1.15,2013-05-09 15:25:00,
2013-05-09 10:31:00,63.2,61.4,29.86,WSW,240,4.0,5.0,94,0.00,,,1.09,Wunderground v.1.15,2013-05-09 15:31:00,
2013-05-09 10:36:00,63.2,61.4,29.86,SW,232,5.0,11.0,94,0.00,,,1.09,Wunderground v.1.15,2013-05-09 15:36:00,
2013-05-09 10:42:00,63.3,61.5,29.86,WSW,241,6.0,8.0,94,0.00,,,1.09,Wunderground v.1.15,2013-05-09 15:42:00,
2013-05-09 10:47:00,63.4,61.6,29.86,SW,233,7.0,10.0,94,0.00,,,1.09,Wunderground v.1.15,2013-05-09 15:47:00,
2013-05-09 10:53:00,63.5,61.7,29.86,SW,234,8.0,8.0,94,0.00,,,1.09,Wunderground v.1.15,2013-05-09 15:53:00,
2013-05-09 10:58:00,63.6,61.8,29.86,SW,225,8.0,9.0,94,0.00,,,1.09,Wunderground v.1.15,2013-05-09 15:58:00,
2013-05-09 11:04:00,63.6,61.8,29.87,WSW,246,8.0,9.0,94,0.00,,,1.09,Wunderground v.1.15,2013-05-09 16:04:00,
2013-05-09 11:09:00,63.6,61.8,29.87,SW,228,9.0,9.0,94,0.00,,,1.09,Wunderground v.1.15,2013-05-09 16:09:00,
2013-05-09 11:15:00,63.7,61.9,29.86,SW,219,9.0,10.0,94,0.00,,,1.09,Wunderground v.1.15,2013-05-09 16:15:00,
2013-05-09 11:20:00,63.8,62.0,29.86,WSW,239,8.0,8.0,94,0.00,,,1.09,Wunderground v.1.15,2013-05-09 16:20:00,
2013-05-09 11:27:00,63.8,61.7,29.85,WSW,243,8.0,11.0,93,0.00,,,1.09,Wunderground v.1.15,2013-05-09 16:27:00,
2013-05-09 11:32:00,63.9,61.8,29.85,WSW,237,8.0,8.0,93,0.00,,,1.09,Wunderground v.1.15,2013-05-09 16:32:00,
2013-05-09 11:38:00,63.9,61.8,29.85,WSW,242,6.0,8.0,93,0.00,,,1.09,Wunderground v.1.15,2013-05-09 16:38:00,
2013-05-09 11:53:00,63.3,61.2,29.85,WSW,240,8.0,8.0,93,0.00,,,1.09,Wunderground v.1.15,2013-05-09 16:53:00,
2013-05-09 11:58:00,63.4,61.6,29.85,WSW,240,8.0,9.0,94,0.00,,,1.09,Wunderground v.1.15,2013-05-09 16:58:00,
2013-05-09 12:04:00,63.4,61.6,29.85,West,263,7.0,8.0,94,0.00,,,1.09,Wunderground v.1.15,2013-05-09 17:04:00,
2013-05-09 12:10:00,63.4,61.6,29.85,West,266,7.0,7.0,94,0.00,,,1.09,Wunderground v.1.15,2013-05-09 17:10:00,
2013-05-09 12:15:00,63.5,61.7,29.85,West,267,7.0,9.0,94,0.00,,,1.09,Wunderground v.1.15,2013-05-09 17:15:00,
2013-05-09 12:20:00,63.7,61.9,29.85,West,265,6.0,6.0,94,0.00,,,1.09,Wunderground v.1.15,2013-05-09 17:20:00,
2013-05-09 12:26:00,63.8,61.7,29.84,WSW,256,5.0,9.0,93,0.00,,,1.09,Wunderground v.1.15,2013-05-09 17:26:00,
2013-05-09 12:32:00,63.8,61.7,29.85,West,265,5.0,7.0,93,0.00,,,1.09,Wunderground v.1.15,2013-05-09 17:32:00,
2013-05-09 12:37:00,63.9,61.8,29.84,West,274,6.0,7.0,93,0.00,,,1.09,Wunderground v.1.15,2013-05-09 17:37:00,
2013-05-09 12:43:00,64.0,61.9,29.85,West,269,5.0,7.0,93,0.00,,,1.09,Wunderground v.1.15,2013-05-09 17:43:00,
2013-05-09 12:48:00,64.1,62.0,29.84,WSW,254,5.0,8.0,93,0.00,,,1.09,Wunderground v.1.15,2013-05-09 17:48:00,
2013-05-09 12:54:00,64.1,61.7,29.84,WSW,252,6.0,6.0,92,0.00,,,1.09,Wunderground v.1.15,2013-05-09 17:54:00,
2013-05-09 12:59:00,64.2,61.8,29.84,SW,236,6.0,7.0,92,0.00,,,1.09,Wunderground v.1.15,2013-05-09 17:59:00,
2013-05-09 13:05:00,64.3,62.2,29.84,West,278,5.0,6.0,93,0.00,,,1.09,Wunderground v.1.15,2013-05-09 18:05:00,
2013-05-09 13:10:00,64.4,62.3,29.84,WSW,240,5.0,5.0,93,0.00,,,1.09,Wunderground v.1.15,2013-05-09 18:10:00,
2013-05-09 13:15:00,64.5,62.4,29.84,WSW,250,5.0,8.0,93,0.00,,,1.09,Wunderground v.1.15,2013-05-09 18:15:00,
2013-05-09 13:21:00,64.8,62.7,29.83,WSW,240,6.0,6.0,93,0.00,,,1.09,Wunderground v.1.15,2013-05-09 18:21:00,
2013-05-09 13:27:00,64.9,62.5,29.83,WSW,254,6.0,7.0,92,0.00,,,1.09,Wunderground v.1.15,2013-05-09 18:27:00,
2013-05-09 13:33:00,65.0,62.6,29.83,WSW,246,6.0,8.0,92,0.00,,,1.09,Wunderground v.1.15,2013-05-09 18:33:00,
2013-05-09 13:39:00,65.1,62.7,29.83,West,271,6.0,8.0,92,0.00,,,1.09,Wunderground v.1.15,2013-05-09 18:39:00,
2013-05-09 13:45:00,65.2,62.5,29.83,West,263,6.0,8.0,91,0.00,,,1.09,Wunderground v.1.15,2013-05-09 18:45:00,
2013-05-09 13:50:00,65.4,62.7,29.83,WSW,240,6.0,6.0,91,0.00,,,1.09,Wunderground v.1.15,2013-05-09 18:50:00,
2013-05-09 13:56:00,65.5,62.8,29.83,WSW,251,6.0,8.0,91,0.00,,,1.09,Wunderground v.1.15,2013-05-09 18:56:00,
2013-05-09 14:01:00,65.6,62.9,29.82,WSW,246,6.0,8.0,91,0.00,,,1.09,Wunderground v.1.15,2013-05-09 19:01:00,
2013-05-09 14:07:00,65.7,63.0,29.82,WSW,246,6.0,9.0,91,0.00,,,1.09,Wunderground v.1.15,2013-05-09 19:07:00,
2013-05-09 14:12:00,65.6,62.9,29.82,West,276,7.0,9.0,91,0.00,,,1.09,Wunderground v.1.15,2013-05-09 19:12:00,
2013-05-09 14:18:00,65.4,63.0,29.83,West,271,7.0,9.0,92,0.00,,,1.09,Wunderground v.1.15,2013-05-09 19:18:00,
2013-05-09 14:24:00,65.4,62.4,29.82,West,276,7.0,7.0,90,0.00,,,1.09,Wunderground v.1.15,2013-05-09 19:24:00,
2013-05-09 14:29:00,65.3,62.6,29.82,West,275,7.0,8.0,91,0.00,,,1.09,Wunderground v.1.15,2013-05-09 19:29:00,
2013-05-09 14:35:00,65.3,62.6,29.82,West,261,6.0,7.0,91,0.00,,,1.09,Wunderground v.1.15,2013-05-09 19:35:00,
2013-05-09 14:50:00,65.2,62.5,29.82,WSW,242,6.0,6.0,91,0.00,,,1.09,Wunderground v.1.15,2013-05-09 19:50:00,
2013-05-09 14:55:00,65.6,63.2,29.82,West,269,6.0,7.0,92,0.00,,,1.09,Wunderground v.1.15,2013-05-09 19:55:00,
2013-05-09 15:01:00,65.7,63.0,29.82,West,259,6.0,6.0,91,0.00,,,1.09,Wunderground v.1.15,2013-05-09 20:01:00,
2013-05-09 15:06:00,66.1,63.4,29.82,West,275,6.0,8.0,91,0.00,,,1.09,Wunderground v.1.15,2013-05-09 20:06:00,
2013-05-09 15:12:00,66.2,63.2,29.81,WSW,250,6.0,8.0,90,0.00,,,1.09,Wunderground v.1.15,2013-05-09 20:12:00,
2013-05-09 15:17:00,66.3,63.3,29.81,West,263,6.0,8.0,90,0.00,,,1.09,Wunderground v.1.15,2013-05-09 20:17:00,
2013-05-09 15:23:00,66.5,63.2,29.81,WNW,298,7.0,10.0,89,0.00,,,1.09,Wunderground v.1.15,2013-05-09 20:23:00,
2013-05-09 15:28:00,66.8,63.8,29.80,WNW,292,7.0,10.0,90,0.00,,,1.09,Wunderground v.1.15,2013-05-09 20:28:00,
2013-05-09 15:34:00,67.9,64.5,29.80,West,281,6.0,10.0,89,0.00,,,1.09,Wunderground v.1.15,2013-05-09 20:34:00,
2013-05-09 15:47:00,68.3,63.9,29.80,WNW,288,7.0,7.0,86,0.00,,,1.09,Wunderground v.1.15,2013-05-09 20:47:00,
2013-05-09 15:53:00,68.2,63.9,29.80,WSW,250,7.0,7.0,86,0.00,,,1.09,Wunderground v.1.15,2013-05-09 20:53:00,
2013-05-09 15:59:00,68.8,64.1,29.80,WNW,293,6.0,10.0,85,0.00,,,1.09,Wunderground v.1.15,2013-05-09 20:59:00,
2013-05-09 16:05:00,69.0,63.6,29.79,West,281,7.0,9.0,83,0.00,,,1.09,Wunderground v.1.15,2013-05-09 21:05:00,
2013-05-09 16:10:00,68.8,63.1,29.79,West,273,7.0,7.0,82,0.00,,,1.09,Wunderground v.1.15,2013-05-09 21:10:00,
2013-05-09 16:16:00,69.5,64.1,29.79,West,281,6.0,8.0,83,0.00,,,1.09,Wunderground v.1.15,2013-05-09 21:16:00,
2013-05-09 16:21:00,69.6,63.5,29.79,WNW,289,7.0,9.0,81,0.00,,,1.09,Wunderground v.1.15,2013-05-09 21:21:00,
2013-05-09 16:27:00,69.3,63.6,29.80,West,268,7.0,10.0,82,0.00,,,1.09,Wunderground v.1.15,2013-05-09 21:27:00,
2013-05-09 16:44:00,70.8,64.7,29.79,West,265,7.0,7.0,81,0.00,,,1.09,Wunderground v.1.15,2013-05-09 21:44:00,
2013-05-09 16:50:00,71.2,64.0,29.79,WNW,286,8.0,8.0,78,0.00,,,1.09,Wunderground v.1.15,2013-05-09 21:50:00,
2013-05-09 16:56:00,70.3,63.5,29.79,West,260,8.0,8.0,79,0.00,,,1.09,Wunderground v.1.15,2013-05-09 21:56:00,
2013-05-09 17:02:00,69.6,62.8,29.79,West,279,7.0,8.0,79,0.00,,,1.09,Wunderground v.1.15,2013-05-09 22:02:00,
2013-05-09 17:07:00,69.3,63.2,29.81,WNW,297,6.0,18.0,81,0.00,,,1.09,Wunderground v.1.15,2013-05-09 22:07:00,
2013-05-09 17:12:00,64.1,57.8,29.81,WSW,247,10.0,11.0,80,1.57,,,1.24,Wunderground v.1.15,2013-05-09 22:12:00,
2013-05-09 17:18:00,61.3,57.1,29.81,NNW,328,9.0,11.0,86,0.19,,,1.28,Wunderground v.1.15,2013-05-09 22:18:00,
2013-05-09 17:24:00,60.9,56.7,29.80,NW,304,6.0,8.0,86,0.07,,,1.28,Wunderground v.1.15,2013-05-09 22:24:00,
2013-05-09 17:29:00,61.0,56.8,29.80,NW,314,6.0,8.0,86,0.05,,,1.29,Wunderground v.1.15,2013-05-09 22:29:00,
2013-05-09 17:34:00,61.1,57.2,29.80,NW,309,5.0,9.0,87,0.09,,,1.30,Wunderground v.1.15,2013-05-09 22:34:00,
2013-05-09 17:40:00,61.2,57.9,29.79,WNW,291,6.0,6.0,89,0.08,,,1.30,Wunderground v.1.15,2013-05-09 22:40:00,
2013-05-09 17:46:00,61.0,58.0,29.78,WNW,291,6.0,8.0,90,0.05,,,1.30,Wunderground v.1.15,2013-05-09 22:46:00,
2013-05-09 17:51:00,60.9,57.9,29.78,WNW,288,4.0,6.0,90,0.00,,,1.30,Wunderground v.1.15,2013-05-09 22:51:00,
2013-05-09 18:02:00,61.0,58.7,29.80,West,272,5.0,5.0,92,0.00,,,1.30,Wunderground v.1.15,2013-05-09 23:02:00,
2013-05-09 18:08:00,60.9,58.6,29.80,West,280,5.0,6.0,92,0.00,,,1.30,Wunderground v.1.15,2013-05-09 23:08:00,
2013-05-09 18:14:00,60.9,58.6,29.80,West,272,5.0,7.0,92,0.00,,,1.30,Wunderground v.1.15,2013-05-09 23:14:00,
2013-05-09 18:20:00,61.0,58.7,29.80,WNW,287,6.0,11.0,92,0.00,,,1.30,Wunderground v.1.15,2013-05-09 23:20:00,
2013-05-09 18:25:00,61.4,59.4,29.80,West,268,7.0,9.0,93,0.00,,,1.30,Wunderground v.1.15,2013-05-09 23:25:00,
2013-05-09 18:30:00,61.7,59.4,29.80,West,267,7.0,9.0,92,0.00,,,1.30,Wunderground v.1.15,2013-05-09 23:30:00,
2013-05-09 18:36:00,61.5,59.2,29.80,WSW,258,5.0,6.0,92,0.00,,,1.30,Wunderground v.1.15,2013-05-09 23:36:00,
2013-05-09 18:41:00,61.6,59.3,29.80,WSW,258,6.0,6.0,92,0.00,,,1.30,Wunderground v.1.15,2013-05-09 23:41:00,
2013-05-09 18:47:00,61.8,59.8,29.81,West,261,5.0,7.0,93,0.00,,,1.30,Wunderground v.1.15,2013-05-09 23:47:00,
2013-05-09 18:53:00,62.1,60.1,29.81,West,271,6.0,8.0,93,0.00,,,1.30,Wunderground v.1.15,2013-05-09 23:53:00,
2013-05-09 18:58:00,62.5,60.1,29.81,West,275,6.0,8.0,92,0.00,,,1.30,Wunderground v.1.15,2013-05-09 23:58:00,
2013-05-09 19:04:00,62.8,60.4,29.81,WNW,285,6.0,7.0,92,0.00,,,1.30,Wunderground v.1.15,2013-05-10 00:04:00,
2013-05-09 19:09:00,62.7,60.3,29.81,West,281,6.0,8.0,92,0.00,,,1.30,Wunderground v.1.15,2013-05-10 00:09:00,
2013-05-09 19:15:00,62.6,60.2,29.81,WNW,293,5.0,6.0,92,0.00,,,1.30,Wunderground v.1.15,2013-05-10 00:15:00,
2013-05-09 19:20:00,62.5,60.4,29.81,WNW,293,5.0,5.0,93,0.00,,,1.30,Wunderground v.1.15,2013-05-10 00:20:00,
2013-05-09 19:26:00,62.5,60.4,29.81,WNW,293,5.0,6.0,93,0.00,,,1.30,Wunderground v.1.15,2013-05-10 00:26:00,
2013-05-09 19:31:00,62.6,60.5,29.82,WNW,293,5.0,5.0,93,0.00,,,1.30,Wunderground v.1.15,2013-05-10 00:31:00,
2013-05-09 19:37:00,62.7,60.9,29.82,WNW,293,5.0,7.0,94,0.00,,,1.30,Wunderground v.1.15,2013-05-10 00:37:00,
2013-05-09 19:42:00,62.9,61.1,29.82,WNW,293,5.0,5.0,94,0.00,,,1.30,Wunderground v.1.15,2013-05-10 00:42:00,
2013-05-09 19:48:00,63.1,61.3,29.82,WNW,293,4.0,6.0,94,0.00,,,1.30,Wunderground v.1.15,2013-05-10 00:48:00,
2013-05-09 19:53:00,63.2,61.4,29.82,WNW,293,4.0,5.0,94,0.00,,,1.30,Wunderground v.1.15,2013-05-10 00:53:00,
2013-05-09 19:59:00,63.4,61.6,29.82,WNW,293,4.0,7.0,94,0.00,,,1.30,Wunderground v.1.15,2013-05-10 00:59:00,
2013-05-09 20:04:00,63.4,61.3,29.82,WNW,293,4.0,5.0,93,0.00,,,1.30,Wunderground v.1.15,2013-05-10 01:04:00,
2013-05-09 20:09:00,63.4,61.3,29.82,WNW,293,4.0,5.0,93,0.00,,,1.30,Wunderground v.1.15,2013-05-10 01:09:00,
2013-05-09 20:18:00,63.2,61.1,29.83,WNW,293,3.0,4.0,93,0.00,,,1.30,Wunderground v.1.15,2013-05-10 01:18:00,
2013-05-09 20:32:00,63.4,61.6,29.83,WNW,293,3.0,3.0,94,0.00,,,1.30,Wunderground v.1.15,2013-05-10 01:32:00,
2013-05-09 20:39:00,63.4,61.6,29.83,WNW,293,2.0,5.0,94,0.00,,,1.30,Wunderground v.1.15,2013-05-10 01:39:00,
2013-05-09 20:45:00,63.5,61.7,29.83,WNW,293,3.0,5.0,94,0.00,,,1.30,Wunderground v.1.15,2013-05-10 01:45:00,
2013-05-09 20:51:00,63.4,61.6,29.84,WNW,293,2.0,5.0,94,0.00,,,1.30,Wunderground v.1.15,2013-05-10 01:51:00,
2013-05-09 20:56:00,63.2,61.4,29.84,WNW,293,1.0,2.0,94,0.00,,,1.30,Wunderground v.1.15,2013-05-10 01:56:00,
2013-05-09 21:07:00,62.9,61.1,29.83,WNW,293,0.0,1.0,94,0.00,,,1.30,Wunderground v.1.15,2013-05-10 02:07:00,
2013-05-09 21:13:00,62.6,60.8,29.83,WNW,293,1.0,1.0,94,0.00,,,1.30,Wunderground v.1.15,2013-05-10 02:13:00,
2013-05-09 21:18:00,62.3,60.6,29.83,WNW,293,1.0,2.0,94,0.00,,,1.30,Wunderground v.1.15,2013-05-10 02:18:00,
2013-05-09 21:24:00,62.2,60.8,29.83,WNW,293,1.0,1.0,95,0.00,,,1.30,Wunderground v.1.15,2013-05-10 02:24:00,
2013-05-09 21:29:00,62.1,60.4,29.83,WNW,293,0.0,1.0,94,0.00,,,1.30,Wunderground v.1.15,2013-05-10 02:29:00,
2013-05-09 21:35:00,61.9,60.2,29.83,WNW,293,0.0,1.0,94,0.00,,,1.30,Wunderground v.1.15,2013-05-10 02:35:00,
2013-05-09 21:41:00,61.7,60.0,29.84,WNW,293,0.0,1.0,94,0.00,,,1.30,Wunderground v.1.15,2013-05-10 02:41:00,
2013-05-09 21:46:00,61.5,60.1,29.84,WNW,293,1.0,1.0,95,0.00,,,1.30,Wunderground v.1.15,2013-05-10 02:46:00,
2013-05-09 21:56:00,61.6,60.2,29.84,WNW,293,1.0,2.0,95,0.00,,,1.30,Wunderground v.1.15,2013-05-10 02:56:00,
2013-05-09 22:02:00,61.7,60.3,29.84,WNW,293,1.0,2.0,95,0.00,,,1.30,Wunderground v.1.15,2013-05-10 03:02:00,
2013-05-09 22:08:00,61.8,60.1,29.84,WNW,293,1.0,5.0,94,0.00,,,1.30,Wunderground v.1.15,2013-05-10 03:08:00,
2013-05-09 22:13:00,61.7,60.0,29.84,WNW,293,2.0,5.0,94,0.00,,,1.30,Wunderground v.1.15,2013-05-10 03:13:00,
2013-05-09 22:19:00,61.7,59.7,29.84,WNW,293,2.0,5.0,93,0.00,,,1.30,Wunderground v.1.15,2013-05-10 03:19:00,
2013-05-09 22:25:00,61.7,59.7,29.84,WNW,293,1.0,2.0,93,0.00,,,1.30,Wunderground v.1.15,2013-05-10 03:25:00,
2013-05-09 22:30:00,61.7,59.7,29.84,WNW,293,1.0,1.0,93,0.00,,,1.30,Wunderground v.1.15,2013-05-10 03:30:00,
2013-05-09 22:36:00,61.5,59.5,29.84,WNW,293,1.0,2.0,93,0.00,,,1.30,Wunderground v.1.15,2013-05-10 03:36:00,
2013-05-09 22:41:00,60.9,58.6,29.84,WNW,293,1.0,1.0,92,0.00,,,1.30,Wunderground v.1.15,2013-05-10 03:41:00,
2013-05-09 22:47:00,60.4,58.4,29.84,WNW,293,0.0,1.0,93,0.00,,,1.30,Wunderground v.1.15,2013-05-10 03:47:00,
2013-05-09 22:52:00,60.0,58.0,29.84,WNW,293,0.0,1.0,93,0.00,,,1.30,Wunderground v.1.15,2013-05-10 03:52:00,
2013-05-09 22:58:00,59.8,58.1,29.85,WNW,293,0.0,1.0,94,0.00,,,1.30,Wunderground v.1.15,2013-05-10 03:58:00,
2013-05-09 23:01:00,59.7,58.0,29.85,WNW,293,0.0,1.0,94,0.00,,,1.30,Wunderground v.1.15,2013-05-10 04:01:00,
2013-05-09 23:02:00,59.6,57.9,29.85,WNW,293,0.0,1.0,94,0.00,,,1.30,Wunderground v.1.15,2013-05-10 04:02:00,
2013-05-09 23:03:00,59.6,57.9,29.85,WNW,293,0.0,1.0,94,0.00,,,1.30,Wunderground v.1.15,2013-05-10 04:03:00,
2013-05-09 23:09:00,59.4,57.7,29.85,WNW,293,1.0,2.0,94,0.00,,,1.30,Wunderground v.1.15,2013-05-10 04:09:00,
2013-05-09 23:12:00,59.5,58.1,29.85,WNW,293,1.0,2.0,95,0.00,,,1.30,Wunderground v.1.15,2013-05-10 04:12:00,
2013-05-09 23:18:00,59.3,57.6,29.85,WNW,293,1.0,2.0,94,0.00,,,1.30,Wunderground v.1.15,2013-05-10 04:18:00,
2013-05-09 23:23:00,59.1,57.4,29.84,WNW,293,1.0,1.0,94,0.00,,,1.30,Wunderground v.1.15,2013-05-10 04:23:00,
2013-05-09 23:44:00,58.8,57.1,29.84,WNW,293,0.0,1.0,94,0.00,,,1.30,Wunderground v.1.15,2013-05-10 04:44:00,
2013-05-09 23:50:00,58.7,57.0,29.84,WNW,293,0.0,1.0,94,0.00,,,1.30,Wunderground v.1.15,2013-05-10 04:50:00,
2013-05-09 23:56:00,58.6,56.9,29.84,WNW,293,0.0,1.0,94,0.00,,,1.30,Wunderground v.1.15,2013-05-10 04:56:00,